User: anonymous   Login
Location: Arpaise
(41.0333°N, 14.7333°E)
Time: 22:34:31
(UTC+00:00)
Language:

Cosmos 1420 Rocket - Orbit

View from above orbital plane
View from above orbital plane
View from above satellite
View from above satellite

Ground track
Ground track

The orbit data is extracted from the following two-line orbital elements,

1 13649U 82109B   20270.42033412 -.00000003  00000-0  79065-5 0  9999
2 13649  74.0005 325.3707 0018924 204.8195 166.0064 14.37188602983611
Epoch (UTC): 26 September 2020 10:05:16
Eccentricity: 0.0018924
inclination: 74.0005°
perigee height: 754 km
apogee height: 781 km
right ascension of ascending node: 325.3707°
argument of perigee: 204.8195°
revolutions per day: 14.37188602
mean anomaly at epoch: 166.0064°
orbit number at epoch: 98361

The dashed part of the orbit path shows where the satellite is in the earth's shadow,  

DLR